• In Belgien
  • Länderverzeichnis
  • Für 7 Tage
  • Wassertemperatur
  • Satellitenkarten
  • Wetterkarte
  • Widgets
  • user-avatar
    Anmelden

    Stündliche Wetter Wavre

    Heute, 23 Februar, Freitag

    Zeit Temperatur Niederschläge Wind Luftdruck Luftfeuchtigkeit
    00:00 -4°C° 0 mm 4 m/S 760 mmHg 66%
    01:00 -4°C° 0 mm 4 m/S 760 mmHg 66%
    02:00 -4°C° 0 mm 4 m/S 760 mmHg 67%
    03:00 -4°C° 0 mm 4 m/S 760 mmHg 67%
    04:00 -4°C° 0 mm 4 m/S 760 mmHg 67%
    05:00 -4°C° 0 mm 4 m/S 760 mmHg 68%
    06:00 -4°C° 0 mm 4 m/S 760 mmHg 69%
    07:00 -4°C° 0 mm 5 m/S 760 mmHg 63%
    08:00 -4°C° 0 mm 6 m/S 759 mmHg 58%
    09:00 -3°C° 0 mm 6 m/S 759 mmHg 52%
    10:00 -2°C° 0 mm 6 m/S 759 mmHg 48%
    11:00 -1°C° 0 mm 6 m/S 759 mmHg 44%
    12:00 0°C° 0 mm 7 m/S 759 mmHg 40%
    13:00 0°C° 0 mm 7 m/S 758 mmHg 39%
    14:00 +1°C° 0 mm 6 m/S 758 mmHg 38%
    15:00 +1°C° 0 mm 6 m/S 758 mmHg 37%
    16:00 -1°C° 0 mm 6 m/S 758 mmHg 40%
    17:00 -1°C° 0 mm 5 m/S 758 mmHg 43%
    18:00 -4°C° 0 mm 5 m/S 758 mmHg 46%
    19:00 -4°C° 0 mm 5 m/S 758 mmHg 46%
    20:00 -4°C° 0 mm 5 m/S 758 mmHg 45%
    21:00 -5°C° 0 mm 5 m/S 758 mmHg 45%
    22:00 -5°C° 0 mm 5 m/S 758 mmHg 44%
    23:00 -5°C° 0 mm 5 m/S 759 mmHg 43%

    Morgen, 24 Februar, Samstag

    Zeit Temperatur Niederschläge Wind Luftdruck Luftfeuchtigkeit
    00:00 -5°C° 0 mm 4 m/S 759 mmHg 42%
    01:00 -6°C° 0 mm 5 m/S 759 mmHg 41%
    02:00 -6°C° 0 mm 5 m/S 759 mmHg 41%
    03:00 -6°C° 0 mm 5 m/S 759 mmHg 40%
    04:00 -6°C° 0 mm 5 m/S 759 mmHg 38%
    05:00 -6°C° 0 mm 5 m/S 759 mmHg 37%
    06:00 -6°C° 0 mm 5 m/S 759 mmHg 35%
    07:00 -4°C° 0 mm 6 m/S 759 mmHg 32%
    08:00 -3°C° 0 mm 7 m/S 760 mmHg 29%
    09:00 -2°C° 0 mm 7 m/S 760 mmHg 25%
    10:00 -1°C° 0 mm 8 m/S 760 mmHg 27%
    11:00 0°C° 0 mm 8 m/S 760 mmHg 29%
    12:00 +2°C° 0 mm 8 m/S 760 mmHg 31%
    13:00 +2°C° 0 mm 8 m/S 760 mmHg 34%
    14:00 +2°C° 0 mm 8 m/S 760 mmHg 37%
    15:00 +3°C° 0 mm 7 m/S 760 mmHg 40%
    16:00 0°C° 0 mm 7 m/S 760 mmHg 44%
    17:00 -1°C° 0 mm 7 m/S 760 mmHg 48%
    18:00 -3°C° 0 mm 6 m/S 761 mmHg 52%
    19:00 -3°C° 0 mm 6 m/S 761 mmHg 51%
    20:00 -4°C° 0 mm 6 m/S 761 mmHg 50%
    21:00 -4°C° 0 mm 6 m/S 762 mmHg 48%
    22:00 -5°C° 0 mm 6 m/S 762 mmHg 49%
    23:00 -5°C° 0 mm 6 m/S 762 mmHg 50%

    übermorgen, 25 Februar, Sonntag

    Zeit Temperatur Niederschläge Wind Luftdruck Luftfeuchtigkeit
    00:00 -5°C° 0 mm 6 m/S 762 mmHg 50%
    01:00 -5°C° 0 mm 6 m/S 762 mmHg 49%
    02:00 -6°C° 0 mm 5 m/S 762 mmHg 48%
    03:00 -6°C° 0 mm 5 m/S 762 mmHg 47%
    04:00 -6°C° 0 mm 6 m/S 763 mmHg 44%
    05:00 -6°C° 0 mm 6 m/S 763 mmHg 41%
    06:00 -8°C° 0 mm 6 m/S 763 mmHg 38%
    07:00 -6°C° 0 mm 6 m/S 764 mmHg 34%
    08:00 -6°C° 0 mm 7 m/S 764 mmHg 29%
    09:00 -6°C° 0 mm 7 m/S 764 mmHg 25%
    10:00 -4°C° 0 mm 7 m/S 764 mmHg 24%
    11:00 -3°C° 0 mm 7 m/S 764 mmHg 23%
    12:00 -2°C° 0 mm 7 m/S 764 mmHg 22%
    13:00 -2°C° 0 mm 7 m/S 764 mmHg 24%
    14:00 -1°C° 0 mm 7 m/S 764 mmHg 26%
    15:00 -1°C° 0 mm 7 m/S 764 mmHg 27%
    16:00 -3°C° 0 mm 6 m/S 764 mmHg 31%
    17:00 -4°C° 0 mm 5 m/S 764 mmHg 36%
    18:00 -5°C° 0 mm 5 m/S 765 mmHg 40%
    19:00 -5°C° 0 mm 5 m/S 765 mmHg 42%
    20:00 -6°C° 0 mm 5 m/S 765 mmHg 43%
    21:00 -6°C° 0 mm 5 m/S 766 mmHg 45%
    22:00 -6°C° 0 mm 5 m/S 766 mmHg 47%
    23:00 -5°C° 0 mm 4 m/S 766 mmHg 49%

    26 Februar, Montag

    Zeit Temperatur Niederschläge Wind Luftdruck Luftfeuchtigkeit
    00:00 -7°C° 0 mm 4 m/S 766 mmHg 51%
    01:00 -7°C° 0 mm 4 m/S 766 mmHg 53%
    02:00 -7°C° 0 mm 4 m/S 766 mmHg 55%
    03:00 -7°C° 0 mm 4 m/S 765 mmHg 57%
    04:00 -7°C° 0 mm 4 m/S 765 mmHg 59%
    05:00 -7°C° 0 mm 4 m/S 765 mmHg 61%
    06:00 -7°C° 0 mm 4 m/S 765 mmHg 62%
    07:00 -7°C° 0 mm 5 m/S 765 mmHg 59%
    08:00 -6°C° 0 mm 5 m/S 765 mmHg 56%
    09:00 -6°C° 0 mm 6 m/S 765 mmHg 53%
    10:00 -5°C° 0 mm 6 m/S 765 mmHg 49%
    11:00 -4°C° 0 mm 6 m/S 765 mmHg 44%
    12:00 -4°C° 0 mm 6 m/S 764 mmHg 40%
    13:00 -4°C° 0 mm 6 m/S 764 mmHg 39%
    14:00 -4°C° 0 mm 6 m/S 763 mmHg 38%
    15:00 -4°C° 0 mm 7 m/S 763 mmHg 37%
    16:00 -5°C° 0 mm 6 m/S 763 mmHg 40%
    17:00 -6°C° 0 mm 5 m/S 763 mmHg 42%
    18:00 -5°C° 0 mm 4 m/S 763 mmHg 45%
    19:00 -7°C° 0 mm 4 m/S 763 mmHg 47%
    20:00 -7°C° 0 mm 4 m/S 763 mmHg 48%
    21:00 -7°C° 0 mm 4 m/S 763 mmHg 49%
    22:00 -7°C° 0 mm 4 m/S 763 mmHg 51%
    23:00 -7°C° 0 mm 4 m/S 763 mmHg 53%

    27 Februar, Dienstag

    Zeit Temperatur Niederschläge Wind Luftdruck Luftfeuchtigkeit
    00:00 -8°C° 0 mm 4 m/S 763 mmHg 54%
    01:00 -8°C° 0 mm 4 m/S 763 mmHg 54%
    02:00 -8°C° 0 mm 4 m/S 762 mmHg 54%
    03:00 -8°C° 0 mm 4 m/S 762 mmHg 54%
    04:00 -8°C° 0 mm 4 m/S 762 mmHg 55%
    05:00 -9°C° 0 mm 4 m/S 762 mmHg 55%
    06:00 -8°C° 0 mm 3 m/S 761 mmHg 56%
    07:00 -8°C° 0 mm 4 m/S 761 mmHg 55%
    08:00 -7°C° 0 mm 5 m/S 761 mmHg 54%
    09:00 -7°C° 0 mm 5 m/S 761 mmHg 53%
    10:00 -6°C° 0 mm 5 m/S 760 mmHg 47%
    11:00 -5°C° 0 mm 5 m/S 760 mmHg 40%
    12:00 -5°C° 0 mm 6 m/S 760 mmHg 34%
    13:00 -4°C° 0 mm 6 m/S 759 mmHg 32%
    14:00 -4°C° 0 mm 6 m/S 759 mmHg 30%
    15:00 -4°C° 0 mm 6 m/S 758 mmHg 29%
    16:00 -5°C° 0 mm 5 m/S 758 mmHg 31%
    17:00 -5°C° 0 mm 4 m/S 758 mmHg 34%
    18:00 -6°C° 0 mm 3 m/S 758 mmHg 37%
    19:00 -6°C° 0 mm 3 m/S 758 mmHg 37%
    20:00 -7°C° 0 mm 3 m/S 758 mmHg 38%
    21:00 -7°C° 0 mm 3 m/S 758 mmHg 38%
    22:00 -7°C° 0 mm 3 m/S 758 mmHg 39%
    23:00 -6°C° 0 mm 2 m/S 758 mmHg 39%

    28 Februar, Mittwoch

    Zeit Temperatur Niederschläge Wind Luftdruck Luftfeuchtigkeit
    00:00 -7°C° 0 mm 2 m/S 758 mmHg 40%
    01:00 -7°C° 0 mm 2 m/S 758 mmHg 40%
    02:00 -7°C° 0 mm 2 m/S 757 mmHg 41%
    03:00 -7°C° 0 mm 2 m/S 757 mmHg 41%
    04:00 -8°C° 0 mm 2 m/S 757 mmHg 41%
    05:00 -8°C° 0 mm 2 m/S 757 mmHg 42%
    06:00 -8°C° 0 mm 2 m/S 757 mmHg 42%
    07:00 -8°C° 0 mm 3 m/S 757 mmHg 38%
    08:00 -7°C° 0 mm 3 m/S 757 mmHg 35%
    09:00 -8°C° 0 mm 4 m/S 756 mmHg 31%
    10:00 -7°C° 0 mm 4 m/S 756 mmHg 29%
    11:00 -5°C° 0 mm 4 m/S 756 mmHg 27%
    12:00 -5°C° 0 mm 4 m/S 755 mmHg 25%
    13:00 -5°C° 0 mm 5 m/S 754 mmHg 25%
    14:00 -5°C° 0 mm 5 m/S 754 mmHg 24%
    15:00 -5°C° 0 mm 5 m/S 753 mmHg 24%
    16:00 -6°C° 0 mm 5 m/S 753 mmHg 27%
    17:00 -7°C° 0 mm 4 m/S 752 mmHg 29%
    18:00 -8°C° 0 mm 4 m/S 752 mmHg 32%
    19:00 -8°C° 0 mm 4 m/S 752 mmHg 33%
    20:00 -8°C° 0 mm 5 m/S 752 mmHg 33%
    21:00 -8°C° 0 mm 5 m/S 751 mmHg 34%
    22:00 -8°C° 0 mm 5 m/S 751 mmHg 35%
    23:00 -9°C° 0 mm 6 m/S 750 mmHg 36%
    Mehr zeigen